Stündliche Wetter Junagadh

Heute, 8 März, Montag

Zeit Temperatur Niederschläge Wind Luftdruck Luftfeuchtigkeit
00:00 +21°C° 0 mm 2 m/S 752 mmHg 86%
01:00 +22°C° 0 mm 1 m/S 751 mmHg 87%
02:00 +22°C° 0 mm 1 m/S 751 mmHg 87%
03:00 +21°C° 0 mm 1 m/S 751 mmHg 87%
04:00 +21°C° 0 mm 1 m/S 751 mmHg 86%
05:00 +21°C° 0 mm 1 m/S 751 mmHg 85%
06:00 +23°C° 0 mm 1 m/S 751 mmHg 77%
07:00 +24°C° 0 mm 1 m/S 752 mmHg 68%
08:00 +26°C° 0 mm 1 m/S 753 mmHg 60%
09:00 +29°C° 0 mm 1 m/S 753 mmHg 46%
10:00 +34°C° 0 mm 2 m/S 753 mmHg 31%
11:00 +37°C° 0 mm 3 m/S 754 mmHg 17%
12:00 +38°C° 0 mm 3 m/S 753 mmHg 15%
13:00 +40°C° 0 mm 3 m/S 752 mmHg 13%
14:00 +42°C° 0 mm 3 m/S 751 mmHg 11%
15:00 +41°C° 0 mm 4 m/S 751 mmHg 14%
16:00 +40°C° 0 mm 5 m/S 751 mmHg 17%
17:00 +39°C° 0 mm 6 m/S 750 mmHg 20%
18:00 +35°C° 0 mm 5 m/S 751 mmHg 29%
19:00 +30°C° 0 mm 4 m/S 751 mmHg 38%
20:00 +27°C° 0 mm 2 m/S 752 mmHg 47%
21:00 +26°C° 0 mm 2 m/S 752 mmHg 51%
22:00 +25°C° 0 mm 2 m/S 752 mmHg 55%
23:00 +24°C° 0 mm 2 m/S 752 mmHg 60%

Morgen, 9 März, Dienstag

Zeit Temperatur Niederschläge Wind Luftdruck Luftfeuchtigkeit
00:00 +23°C° 0 mm 1 m/S 752 mmHg 62%
01:00 +23°C° 0 mm 1 m/S 751 mmHg 65%
02:00 +22°C° 0 mm 1 m/S 751 mmHg 68%
03:00 +22°C° 0 mm 1 m/S 751 mmHg 69%
04:00 +22°C° 0 mm 1 m/S 751 mmHg 71%
05:00 +21°C° 0 mm 1 m/S 751 mmHg 72%
06:00 +23°C° 0 mm 2 m/S 752 mmHg 68%
07:00 +24°C° 0 mm 2 m/S 752 mmHg 64%
08:00 +26°C° 0 mm 2 m/S 753 mmHg 60%
09:00 +29°C° 0 mm 2 m/S 753 mmHg 46%
10:00 +33°C° 0 mm 3 m/S 754 mmHg 33%
11:00 +37°C° 0 mm 3 m/S 754 mmHg 20%
12:00 +38°C° 0 mm 3 m/S 753 mmHg 17%
13:00 +39°C° 0 mm 2 m/S 752 mmHg 14%
14:00 +41°C° 0 mm 2 m/S 752 mmHg 10%
15:00 +40°C° 0 mm 3 m/S 751 mmHg 14%
16:00 +40°C° 0 mm 5 m/S 751 mmHg 17%
17:00 +39°C° 0 mm 6 m/S 750 mmHg 20%
18:00 +35°C° 0 mm 5 m/S 751 mmHg 33%
19:00 +30°C° 0 mm 4 m/S 752 mmHg 45%
20:00 +27°C° 0 mm 2 m/S 752 mmHg 57%
21:00 +26°C° 0 mm 2 m/S 752 mmHg 64%
22:00 +25°C° 0 mm 2 m/S 752 mmHg 70%
23:00 +23°C° 0 mm 2 m/S 752 mmHg 77%

übermorgen, 10 März, Mittwoch

Zeit Temperatur Niederschläge Wind Luftdruck Luftfeuchtigkeit
00:00 +23°C° 0 mm 1 m/S 752 mmHg 79%
01:00 +22°C° 0 mm 1 m/S 751 mmHg 80%
02:00 +22°C° 0 mm 1 m/S 751 mmHg 82%
03:00 +21°C° 0 mm 1 m/S 751 mmHg 82%
04:00 +21°C° 0 mm 1 m/S 751 mmHg 81%
05:00 +20°C° 0 mm 2 m/S 751 mmHg 80%
06:00 +22°C° 0 mm 1 m/S 752 mmHg 73%
07:00 +24°C° 0 mm 1 m/S 752 mmHg 67%
08:00 +25°C° 0 mm 1 m/S 753 mmHg 60%
09:00 +29°C° 0 mm 2 m/S 753 mmHg 46%
10:00 +32°C° 0 mm 2 m/S 753 mmHg 33%
11:00 +36°C° 0 mm 3 m/S 753 mmHg 20%
12:00 +38°C° 0 mm 3 m/S 753 mmHg 17%
13:00 +39°C° 0 mm 2 m/S 752 mmHg 14%
14:00 +40°C° 0 mm 2 m/S 751 mmHg 11%
15:00 +40°C° 0 mm 4 m/S 751 mmHg 15%
16:00 +39°C° 0 mm 5 m/S 750 mmHg 18%
17:00 +38°C° 0 mm 7 m/S 750 mmHg 22%
18:00 +34°C° 0 mm 5 m/S 750 mmHg 32%
19:00 +29°C° 0 mm 4 m/S 751 mmHg 42%
20:00 +26°C° 0 mm 3 m/S 751 mmHg 53%
21:00 +25°C° 0 mm 2 m/S 751 mmHg 59%
22:00 +24°C° 0 mm 2 m/S 751 mmHg 66%
23:00 +23°C° 0 mm 2 m/S 752 mmHg 73%

11 März, Donnerstag

Zeit Temperatur Niederschläge Wind Luftdruck Luftfeuchtigkeit
00:00 +21°C° 0 mm 2 m/S 751 mmHg 77%
01:00 +21°C° 0 mm 1 m/S 751 mmHg 80%
02:00 +21°C° 0 mm 1 m/S 751 mmHg 84%
03:00 +21°C° 0 mm 1 m/S 751 mmHg 86%
04:00 +20°C° 0 mm 2 m/S 751 mmHg 89%
05:00 +19°C° 0 mm 2 m/S 751 mmHg 91%
06:00 +21°C° 0 mm 2 m/S 751 mmHg 87%
07:00 +23°C° 0 mm 2 m/S 752 mmHg 83%
08:00 +24°C° 0 mm 2 m/S 752 mmHg 79%
09:00 +27°C° 0 mm 1 m/S 753 mmHg 62%
10:00 +30°C° 0 mm 1 m/S 753 mmHg 44%
11:00 +34°C° 0 mm 1 m/S 753 mmHg 27%
12:00 +36°C° 0 mm 2 m/S 752 mmHg 22%
13:00 +38°C° 0 mm 3 m/S 752 mmHg 18%
14:00 +40°C° 0 mm 4 m/S 751 mmHg 14%
15:00 +39°C° 0 mm 5 m/S 750 mmHg 19%
16:00 +36°C° 0 mm 6 m/S 750 mmHg 25%
17:00 +35°C° 0 mm 7 m/S 750 mmHg 30%
18:00 +32°C° 0 mm 5 m/S 750 mmHg 44%
19:00 +28°C° 0 mm 4 m/S 751 mmHg 58%
20:00 +25°C° 0 mm 3 m/S 751 mmHg 72%
21:00 +24°C° 0 mm 3 m/S 751 mmHg 76%
22:00 +23°C° 0 mm 2 m/S 751 mmHg 81%
23:00 +21°C° 0 mm 2 m/S 752 mmHg 85%

12 März, Freitag

Zeit Temperatur Niederschläge Wind Luftdruck Luftfeuchtigkeit
00:00 +21°C° 0 mm 2 m/S 751 mmHg 86%
01:00 +21°C° 0 mm 2 m/S 751 mmHg 87%
02:00 +21°C° 0 mm 1 m/S 751 mmHg 87%
03:00 +20°C° 0 mm 2 m/S 751 mmHg 88%
04:00 +20°C° 0 mm 2 m/S 751 mmHg 89%
05:00 +20°C° 0 mm 3 m/S 751 mmHg 89%
06:00 +21°C° 0 mm 3 m/S 751 mmHg 83%
07:00 +24°C° 0 mm 2 m/S 752 mmHg 77%
08:00 +25°C° 0 mm 2 m/S 753 mmHg 70%
09:00 +28°C° 0 mm 2 m/S 753 mmHg 55%
10:00 +31°C° 0 mm 1 m/S 754 mmHg 39%
11:00 +35°C° 0 mm 1 m/S 754 mmHg 24%
12:00 +36°C° 0 mm 1 m/S 753 mmHg 20%
13:00 +38°C° 0 mm 2 m/S 752 mmHg 17%
14:00 +40°C° 0 mm 2 m/S 752 mmHg 13%
15:00 +39°C° 0 mm 3 m/S 751 mmHg 17%
16:00 +38°C° 0 mm 4 m/S 751 mmHg 22%
17:00 +38°C° 0 mm 6 m/S 751 mmHg 26%
18:00 +34°C° 0 mm 5 m/S 751 mmHg 37%
19:00 +30°C° 0 mm 4 m/S 751 mmHg 48%
20:00 +26°C° 0 mm 3 m/S 752 mmHg 59%
21:00 +25°C° 0 mm 2 m/S 752 mmHg 66%
22:00 +24°C° 0 mm 2 m/S 752 mmHg 72%
23:00 +24°C° 0 mm 1 m/S 753 mmHg 79%

13 März, Samstag

Zeit Temperatur Niederschläge Wind Luftdruck Luftfeuchtigkeit
00:00 +23°C° 0 mm 2 m/S 752 mmHg 77%
01:00 +23°C° 0 mm 2 m/S 752 mmHg 74%
02:00 +22°C° 0 mm 3 m/S 752 mmHg 72%
03:00 +22°C° 0 mm 3 m/S 752 mmHg 74%
04:00 +21°C° 0 mm 2 m/S 752 mmHg 75%
05:00 +21°C° 0 mm 2 m/S 752 mmHg 77%
06:00 +24°C° 0 mm 3 m/S 753 mmHg 68%
07:00 +25°C° 0 mm 3 m/S 753 mmHg 60%
08:00 +27°C° 0 mm 3 m/S 754 mmHg 51%
09:00 +30°C° 0 mm 3 m/S 754 mmHg 38%
10:00 +35°C° 0 mm 3 m/S 755 mmHg 26%
11:00 +38°C° 0 mm 3 m/S 755 mmHg 13%
12:00 +39°C° 0 mm 3 m/S 754 mmHg 12%
13:00 +40°C° 0 mm 3 m/S 753 mmHg 11%
14:00 +43°C° 0 mm 3 m/S 752 mmHg 9%
15:00 +42°C° 0 mm 4 m/S 752 mmHg 10%
16:00 +42°C° 0 mm 4 m/S 752 mmHg 11%
17:00 +41°C° 0 mm 5 m/S 751 mmHg 12%
18:00 +37°C° 0 mm 5 m/S 751 mmHg 21%
19:00 +33°C° 0 mm 4 m/S 752 mmHg 30%
20:00 +28°C° 0 mm 3 m/S 752 mmHg 39%
21:00 +27°C° 0 mm 2 m/S 752 mmHg 44%
22:00 +26°C° 0 mm 2 m/S 752 mmHg 49%
23:00 +24°C° 0 mm 2 m/S 752 mmHg 54%
Mehr zeigen

Wir brauchen deine Erlaubnis

Meteoprog und unser Service Anbieter werden persönliche Daten aufbewahren, so wie Cookies, Geräte Bezeichnung oder ähnliche Technologien von deinem Gerät und Prozess, so wie Persönliche Daten Inhalte und Werbungen, genauso wie social Media und den Verkehr zu analysieren.

  • Aufbewahrung und/oder Zugang zu deiner Geräte Informationen.

    Cookies, Geräte Bezeichnung oder andere Informationen, können aufbewahrt oder Zugang zu deinem Gerät erhalten, für den Grund, der oben angegeben wird.

  • Personalisierte Werbung und Inhalte, Messungen, Einblick in das Publikum und Produkt Entwicklung.

    Werbungen und Inhalte können personalisiert werden, basierend auf ein Profil. Mehr Daten können besser personalisierte Werbungen und Inhalte hinzufügen. Werbung und Inhalte können gezeigt und gemessen werden. Einblicke über das Publikum, welche die Werbung gesehen haben und den Inhalt, können abgeleitet werden. So wie Daten können genutzt werden, um es zu verbessern oder die Benutzer Erfahrung zu verbessern das System und die Software.

Wenn du “Ich stimme zu” klickst, erlaubst du uns, die Cookies zu benutzen die Geräte Bezeichnung, den Web oder ähnliche Technologien zu benutzen. Deine Settings, können in deinem Gerät bei deinem Browser geändert werden.

Für den bestimmten Zweck, berechtigten Interessen beruhen darauf, mehr als auf den Inhalt. Du kannst mehr darüber in unseren Privaten und Cookie Politik lesen.